| time (UTC) | temp F | wind direction | speed MPH | gust MPH | rain 1hr in | rain 24hr in | rain mn in | humidity % | barometer mb |
| 20260508044024 | 81 | 54 | 1.0 | 5.0 | 0.00 | 0.00 | 0.00 | 13 | 1012.6 |
| 20260508043523 | 82 | 53 | 2.0 | 5.0 | 0.00 | 0.00 | 0.00 | 13 | 1012.7 |
| 20260508043023 | 82 | 360 | 2.0 | 3.0 | 0.00 | 0.00 | 0.00 | 12 | 1012.7 |
| 20260508042524 | 82 | 60 | 1.0 | 4.0 | 0.00 | 0.00 | 0.00 | 12 | 1012.8 |
| 20260508042023 | 82 | 60 | 2.0 | 4.0 | 0.00 | 0.00 | 0.00 | 12 | 1012.7 |
| 20260508041523 | 83 | 61 | 2.0 | 5.0 | 0.00 | 0.00 | 0.00 | 12 | 1012.9 |
| 20260508041024 | 83 | 61 | 4.0 | 5.0 | 0.00 | 0.00 | 0.00 | 12 | 1012.7 |
| 20260508040523 | 83 | 67 | 2.0 | 7.0 | 0.00 | 0.00 | 0.00 | 12 | 1012.7 |
| 20260508040022 | 83 | 360 | 3.0 | 7.0 | 0.00 | 0.00 | 0.00 | 12 | 1012.8 |
| 20260508035022 | 84 | 360 | 4.0 | 5.0 | 0.00 | 0.00 | 0.00 | 12 | 1012.5 |
| 20260508034523 | 84 | 360 | 2.0 | 5.0 | 0.00 | 0.00 | 0.00 | 11 | 1012.5 |
| 20260508034023 | 84 | 59 | 1.0 | 5.0 | 0.00 | 0.00 | 0.00 | 12 | 1012.4 |
| 20260508033522 | 85 | 360 | 3.0 | 6.0 | 0.00 | 0.00 | 0.00 | 11 | 1012.4 |
| 20260508033022 | 85 | 63 | 5.0 | 6.0 | 0.00 | 0.00 | 0.00 | 11 | 1012.2 |
| 20260508032523 | 85 | 49 | 4.0 | 5.0 | 0.00 | 0.00 | 0.00 | 11 | 1012.3 |
| 20260508032024 | 86 | 63 | 4.0 | 5.0 | 0.00 | 0.00 | 0.00 | 11 | 1012.4 |
| 20260508031523 | 86 | 44 | 3.0 | 5.0 | 0.00 | 0.00 | 0.00 | 13 | 1012.4 |
| 20260508030523 | 87 | 360 | 1.0 | 3.0 | 0.00 | 0.00 | 0.00 | 13 | 1012.3 |
| 20260508030023 | 87 | 360 | 1.0 | 3.0 | 0.00 | 0.00 | 0.00 | 13 | 1012.2 |
| 20260508025522 | 88 | 360 | 1.0 | 3.0 | 0.00 | 0.00 | 0.00 | 13 | 1011.9 |
| 20260508025022 | 88 | 360 | 0.0 | 3.0 | 0.00 | 0.00 | 0.00 | 12 | 1011.7 |
| 20260508024522 | 88 | 360 | 2.0 | 4.0 | 0.00 | 0.00 | 0.00 | 12 | 1011.7 |
| 20260508024022 | 88 | 360 | 1.0 | 6.0 | 0.00 | 0.00 | 0.00 | 12 | 1011.7 |
| 20260508023523 | 89 | 360 | 4.0 | 7.0 | 0.00 | 0.00 | 0.00 | 12 | 1011.5 |
| 20260508023023 | 89 | 360 | 4.0 | 7.0 | 0.00 | 0.00 | 0.00 | 12 | 1011.5 |
| 20260508022523 | 89 | 360 | 3.0 | 5.0 | 0.00 | 0.00 | 0.00 | 12 | 1011.5 |
| 20260508022022 | 89 | 360 | 2.0 | 6.0 | 0.00 | 0.00 | 0.00 | 12 | 1011.5 |
| 20260508021523 | 90 | 360 | 2.0 | 6.0 | 0.00 | 0.00 | 0.00 | 12 | 1011.6 |
| 20260508021022 | 90 | 360 | 4.0 | 7.0 | 0.00 | 0.00 | 0.00 | 11 | 1011.5 |
| 20260508020522 | 90 | 360 | 3.0 | 7.0 | 0.00 | 0.00 | 0.00 | 11 | 1011.5 |
| 20260508020022 | 90 | 360 | 1.0 | 5.0 | 0.00 | 0.00 | 0.00 | 11 | 1011.5 |
| 20260508015522 | 90 | 360 | 4.0 | 7.0 | 0.00 | 0.00 | 0.00 | 10 | 1010.7 |
| 20260508015022 | 90 | 360 | 3.0 | 7.0 | 0.00 | 0.00 | 0.00 | 10 | 1011.0 |
| 20260508014522 | 90 | 360 | 3.0 | 8.0 | 0.00 | 0.00 | 0.00 | 10 | 1010.9 |
| 20260508013523 | 91 | 360 | 3.0 | 9.0 | 0.00 | 0.00 | 0.00 | 10 | 1010.9 |
| 20260508012522 | 91 | 360 | 3.0 | 8.0 | 0.00 | 0.00 | 0.00 | 10 | 1010.7 |
| 20260508012023 | 91 | 360 | 7.0 | 8.0 | 0.00 | 0.00 | 0.00 | 10 | 1010.7 |
| 20260508011523 | 91 | 360 | 6.0 | 8.0 | 0.00 | 0.00 | 0.00 | 10 | 1010.9 |
| 20260508010523 | 92 | 360 | 4.0 | 8.0 | 0.00 | 0.00 | 0.00 | 9 | 1011.0 |
| 20260508010023 | 92 | 360 | 5.0 | 8.0 | 0.00 | 0.00 | 0.00 | 10 | 1011.1 |
| 20260508005523 | 92 | 191 | 2.0 | 9.0 | 0.00 | 0.00 | 0.00 | 10 | 1010.9 |
| 20260508005023 | 92 | 360 | 3.0 | 9.0 | 0.00 | 0.00 | 0.00 | 9 | 1011.0 |
| 20260508004522 | 92 | 220 | 4.0 | 9.0 | 0.00 | 0.00 | 0.00 | 9 | 1011.0 |
| 20260508004022 | 92 | 360 | 5.0 | 11.0 | 0.00 | 0.00 | 0.00 | 9 | 1011.1 |
| 20260508003522 | 92 | 360 | 7.0 | 11.0 | 0.00 | 0.00 | 0.00 | 9 | 1011.1 |
| 20260508003023 | 92 | 360 | 5.0 | 10.0 | 0.00 | 0.00 | 0.00 | 9 | 1010.9 |
| 20260508002522 | 92 | 360 | 5.0 | 10.0 | 0.00 | 0.00 | 0.00 | 9 | 1010.9 |
| 20260508002022 | 92 | 360 | 10.0 | 10.0 | 0.00 | 0.00 | 0.00 | 10 | 1011.2 |
| 20260508001523 | 92 | 360 | 3.0 | 12.0 | 0.00 | 0.00 | 0.00 | 10 | 1011.4 |
| 20260508001023 | 92 | 360 | 6.0 | 12.0 | 0.00 | 0.00 | 0.00 | 9 | 1011.3 |
| 20260508000023 | 92 | 360 | 3.0 | 10.0 | 0.00 | 0.00 | 0.00 | 10 | 1011.4 |
| 20260507235523 | 92 | 360 | 5.0 | 10.0 | 0.00 | 0.00 | 0.00 | 10 | 1011.5 |
| 20260507235022 | 92 | 360 | 7.0 | 10.0 | 0.00 | 0.00 | 0.00 | 10 | 1011.6 |
| 20260507234022 | 92 | 360 | 3.0 | 4.0 | 0.00 | 0.00 | 0.00 | 10 | 1011.7 |
| 20260507233522 | 92 | 159 | 3.0 | 7.0 | 0.00 | 0.00 | 0.00 | 9 | 1011.8 |
| 20260507233023 | 92 | 360 | 3.0 | 7.0 | 0.00 | 0.00 | 0.00 | 9 | 1011.9 |
| 20260507232523 | 91 | 360 | 1.0 | 6.0 | 0.00 | 0.00 | 0.00 | 10 | 1011.8 |
| 20260507232022 | 91 | 360 | 2.0 | 6.0 | 0.00 | 0.00 | 0.00 | 9 | 1011.8 |
| 20260507231022 | 91 | 360 | 3.0 | 7.0 | 0.00 | 0.00 | 0.00 | 10 | 1012.1 |
| 20260507230523 | 91 | 360 | 4.0 | 7.0 | 0.00 | 0.00 | 0.00 | 10 | 1012.0 |
| 20260507230023 | 91 | 229 | 5.0 | 5.0 | 0.00 | 0.00 | 0.00 | 10 | 1012.2 |
| 20260507225522 | 91 | 151 | 2.0 | 7.0 | 0.00 | 0.00 | 0.00 | 9 | 1012.4 |
| 20260507225023 | 91 | 360 | 1.0 | 10.0 | 0.00 | 0.00 | 0.00 | 9 | 1012.4 |
| 20260507224522 | 91 | 360 | 4.0 | 10.0 | 0.00 | 0.00 | 0.00 | 10 | 1012.7 |
| 20260507224023 | 90 | 360 | 7.0 | 8.0 | 0.00 | 0.00 | 0.00 | 10 | 1012.6 |
| 20260507223522 | 91 | 360 | 2.0 | 8.0 | 0.00 | 0.00 | 0.00 | 9 | 1012.7 |
| 20260507223022 | 91 | 360 | 6.0 | 8.0 | 0.00 | 0.00 | 0.00 | 9 | 1012.8 |
| 20260507222522 | 91 | 360 | 7.0 | 8.0 | 0.00 | 0.00 | 0.00 | 9 | 1012.9 |
| 20260507222022 | 90 | 109 | 3.0 | 6.0 | 0.00 | 0.00 | 0.00 | 9 | 1012.8 |
| 20260507221523 | 90 | 360 | 5.0 | 6.0 | 0.00 | 0.00 | 0.00 | 10 | 1013.1 |
| 20260507221023 | 91 | 360 | 5.0 | 5.0 | 0.00 | 0.00 | 0.00 | 9 | 1013.2 |
| 20260507220022 | 90 | 98 | 1.0 | 6.0 | 0.00 | 0.00 | 0.00 | 10 | 1013.2 |
| 20260507215022 | 89 | 22 | 4.0 | 7.0 | 0.00 | 0.00 | 0.00 | 10 | 1013.5 |
| 20260507214523 | 89 | 153 | 2.0 | 5.0 | 0.00 | 0.00 | 0.00 | 10 | 1013.7 |
| 20260507214022 | 88 | 46 | 3.0 | 5.0 | 0.00 | 0.00 | 0.00 | 10 | 1014.0 |
| 20260507213022 | 89 | 53 | 0.0 | 6.0 | 0.00 | 0.00 | 0.00 | 10 | 1014.1 |
| 20260507212022 | 89 | 328 | 2.0 | 6.0 | 0.00 | 0.00 | 0.00 | 10 | 1014.3 |
| 20260507211522 | 89 | 360 | 3.0 | 6.0 | 0.00 | 0.00 | 0.00 | 10 | 1014.4 |
| 20260507211022 | 89 | 360 | 2.0 | 8.0 | 0.00 | 0.00 | 0.00 | 10 | 1014.5 |
| 20260507210523 | 90 | 360 | 0.0 | 8.0 | 0.00 | 0.00 | 0.00 | 9 | 1014.7 |
| 20260507210022 | 89 | 360 | 0.0 | 5.0 | 0.00 | 0.00 | 0.00 | 10 | 1014.6 |
| 20260507205522 | 89 | 140 | 3.0 | 5.0 | 0.00 | 0.00 | 0.00 | 10 | 1014.9 |
| 20260507205022 | 89 | 360 | 2.0 | 7.0 | 0.00 | 0.00 | 0.00 | 9 | 1015.1 |
| 20260507204522 | 90 | 360 | 3.0 | 9.0 | 0.00 | 0.00 | 0.00 | 10 | 1015.1 |
| 20260507204022 | 89 | 360 | 4.0 | 9.0 | 0.00 | 0.00 | 0.00 | 10 | 1015.3 |
| 20260507203522 | 87 | 360 | 3.0 | 9.0 | 0.00 | 0.00 | 0.00 | 11 | 1015.4 |
| 20260507202522 | 88 | 360 | 2.0 | 7.0 | 0.00 | 0.00 | 0.00 | 10 | 1015.5 |
| 20260507202022 | 87 | 62 | 0.0 | 4.0 | 0.00 | 0.00 | 0.00 | 10 | 1015.6 |
| 20260507201524 | 88 | 360 | 1.0 | 7.0 | 0.00 | 0.00 | 0.00 | 10 | 1015.7 |
| 20260507201022 | 88 | 360 | 2.0 | 8.0 | 0.00 | 0.00 | 0.00 | 10 | 1015.8 |
| 20260507200522 | 88 | 360 | 4.0 | 8.0 | 0.00 | 0.00 | 0.00 | 10 | 1015.9 |
| 20260507195522 | 88 | 360 | 3.0 | 6.0 | 0.00 | 0.00 | 0.00 | 10 | 1016.1 |
| 20260507195022 | 88 | 360 | 2.0 | 7.0 | 0.00 | 0.00 | 0.00 | 9 | 1016.2 |
| 20260507194522 | 88 | 360 | 2.0 | 7.0 | 0.00 | 0.00 | 0.00 | 10 | 1016.4 |
| 20260507193522 | 88 | 360 | 2.0 | 6.0 | 0.00 | 0.00 | 0.00 | 10 | 1016.5 |
| 20260507192522 | 86 | 360 | 2.0 | 5.0 | 0.00 | 0.00 | 0.00 | 10 | 1016.5 |
| 20260507192022 | 86 | 360 | 3.0 | 7.0 | 0.00 | 0.00 | 0.00 | 10 | 1016.7 |
| 20260507191523 | 86 | 360 | 3.0 | 7.0 | 0.00 | 0.00 | 0.00 | 11 | 1016.9 |
| 20260507191022 | 86 | 90 | 2.0 | 9.0 | 0.00 | 0.00 | 0.00 | 10 | 1016.8 |
| 20260507190522 | 86 | 360 | 3.0 | 9.0 | 0.00 | 0.00 | 0.00 | 11 | 1017.1 |
| 20260507190022 | 86 | 360 | 3.0 | 8.0 | 0.00 | 0.00 | 0.00 | 10 | 1017.1 |
| 20260507185522 | 86 | 360 | 3.0 | 8.0 | 0.00 | 0.00 | 0.00 | 10 | 1017.1 |
| 20260507185022 | 85 | 360 | 4.0 | 8.0 | 0.00 | 0.00 | 0.00 | 11 | 1017.1 |
| 20260507184022 | 85 | 360 | 1.0 | 7.0 | 0.00 | 0.00 | 0.00 | 10 | 1017.3 |
| 20260507183522 | 85 | 360 | 1.0 | 7.0 | 0.00 | 0.00 | 0.00 | 10 | 1017.4 |
| 20260507182022 | 84 | 360 | 4.0 | 8.0 | 0.00 | 0.00 | 0.00 | 12 | 1017.5 |
| 20260507181523 | 83 | 360 | 4.0 | 8.0 | 0.00 | 0.00 | 0.00 | 11 | 1017.5 |
| 20260507181022 | 83 | 360 | 1.0 | 8.0 | 0.00 | 0.00 | 0.00 | 11 | 1017.7 |
| 20260507180523 | 83 | 125 | 2.0 | 8.0 | 0.00 | 0.00 | 0.00 | 12 | 1017.7 |
| 20260507180022 | 82 | 360 | 2.0 | 7.0 | 0.00 | 0.00 | 0.00 | 12 | 1017.6 |
| 20260507175022 | 82 | 360 | 4.0 | 7.0 | 0.00 | 0.00 | 0.00 | 12 | 1017.9 |
| 20260507173022 | 82 | 360 | 2.0 | 7.0 | 0.00 | 0.00 | 0.00 | 13 | 1018.1 |
| 20260507172523 | 81 | 360 | 2.0 | 6.0 | 0.00 | 0.00 | 0.00 | 14 | 1018.1 |
| 20260507171522 | 81 | 79 | 5.0 | 8.0 | 0.00 | 0.00 | 0.00 | 15 | 1018.1 |
| 20260507171022 | 81 | 107 | 4.0 | 7.0 | 0.00 | 0.00 | 0.00 | 14 | 1018.3 |
| 20260507170522 | 81 | 360 | 2.0 | 5.0 | 0.00 | 0.00 | 0.00 | 15 | 1018.3 |
| 20260507170022 | 81 | 360 | 3.0 | 5.0 | 0.00 | 0.00 | 0.00 | 15 | 1018.3 |
| 20260507165522 | 80 | 360 | 2.0 | 5.0 | 0.00 | 0.00 | 0.00 | 15 | 1018.3 |
| 20260507165022 | 80 | 360 | 1.0 | 5.0 | 0.00 | 0.00 | 0.00 | 14 | 1018.3 |
| 20260507164522 | 80 | 144 | 1.0 | 5.0 | 0.00 | 0.00 | 0.00 | 15 | 1018.3 |
| 20260507164022 | 80 | 360 | 5.0 | 7.0 | 0.00 | 0.00 | 0.00 | 14 | 1018.3 |
| 20260507163022 | 79 | 360 | 3.0 | 6.0 | 0.00 | 0.00 | 0.00 | 15 | 1018.3 |
| 20260507162522 | 79 | 360 | 0.0 | 6.0 | 0.00 | 0.00 | 0.00 | 15 | 1018.3 |
| 20260507162022 | 79 | 360 | 2.0 | 6.0 | 0.00 | 0.00 | 0.00 | 16 | 1018.4 |
| 20260507161522 | 79 | 174 | 2.0 | 4.0 | 0.00 | 0.00 | 0.00 | 15 | 1018.4 |
| 20260507161022 | 79 | 360 | 2.0 | 4.0 | 0.00 | 0.00 | 0.00 | 16 | 1018.4 |
| 20260507160523 | 78 | 360 | 2.0 | 4.0 | 0.00 | 0.00 | 0.00 | 17 | 1018.3 |
| 20260507160022 | 78 | 360 | 0.0 | 3.0 | 0.00 | 0.00 | 0.00 | 17 | 1018.3 |
| 20260507155522 | 78 | 217 | 0.0 | 4.0 | 0.00 | 0.00 | 0.00 | 16 | 1018.5 |
| 20260507155022 | 77 | 220 | 0.0 | 4.0 | 0.00 | 0.00 | 0.00 | 17 | 1018.4 |
| 20260507154522 | 77 | 238 | 3.0 | 4.0 | 0.00 | 0.00 | 0.00 | 17 | 1018.4 |
| 20260507153523 | 76 | 360 | 1.0 | 5.0 | 0.00 | 0.00 | 0.00 | 18 | 1018.6 |
| 20260507153021 | 75 | 234 | 3.0 | 5.0 | 0.00 | 0.00 | 0.00 | 20 | 1018.5 |
| 20260507152522 | 75 | 360 | 3.0 | 6.0 | 0.00 | 0.00 | 0.00 | 20 | 1018.6 |
| 20260507152021 | 74 | 271 | 3.0 | 6.0 | 0.00 | 0.00 | 0.00 | 20 | 1018.7 |
| 20260507151522 | 74 | 360 | 5.0 | 6.0 | 0.00 | 0.00 | 0.00 | 20 | 1018.7 |
| 20260507151022 | 74 | 360 | 6.0 | 6.0 | 0.00 | 0.00 | 0.00 | 21 | 1018.8 |
| 20260507150522 | 73 | 360 | 4.0 | 6.0 | 0.00 | 0.00 | 0.00 | 21 | 1018.4 |
| 20260507145021 | 71 | 360 | 4.0 | 7.0 | 0.00 | 0.00 | 0.00 | 22 | 1018.7 |
| 20260507144521 | 71 | 360 | 4.0 | 7.0 | 0.00 | 0.00 | 0.00 | 22 | 1018.8 |
| 20260507144022 | 70 | 360 | 3.0 | 5.0 | 0.00 | 0.00 | 0.00 | 23 | 1018.8 |
| 20260507143522 | 69 | 294 | 3.0 | 5.0 | 0.00 | 0.00 | 0.00 | 24 | 1018.6 |
| 20260507143022 | 68 | 360 | 2.0 | 5.0 | 0.00 | 0.00 | 0.00 | 25 | 1018.6 |
| 20260507142522 | 67 | 286 | 1.0 | 4.0 | 0.00 | 0.00 | 0.00 | 26 | 1018.5 |
| 20260507142022 | 66 | 360 | 2.0 | 4.0 | 0.00 | 0.00 | 0.00 | 26 | 1018.5 |
| 20260507141522 | 65 | 286 | 4.0 | 5.0 | 0.00 | 0.00 | 0.00 | 27 | 1018.2 |
| 20260507140522 | 62 | 278 | 1.0 | 6.0 | 0.00 | 0.00 | 0.00 | 29 | 1017.9 |
| 20260507140023 | 62 | 286 | 2.0 | 6.0 | 0.00 | 0.00 | 0.00 | 29 | 1017.9 |
| 20260507135522 | 62 | 274 | 1.0 | 6.0 | 0.00 | 0.00 | 0.00 | 29 | 1018.1 |
| 20260507135021 | 61 | 275 | 5.0 | 6.0 | 0.00 | 0.00 | 0.00 | 29 | 1017.9 |
| 20260507134522 | 61 | 334 | 5.0 | 6.0 | 0.00 | 0.00 | 0.00 | 29 | 1018.0 |
| 20260507133523 | 61 | 360 | 4.0 | 7.0 | 0.00 | 0.00 | 0.00 | 29 | 1017.9 |
| 20260507133023 | 61 | 360 | 3.0 | 7.0 | 0.00 | 0.00 | 0.00 | 29 | 1017.9 |
| 20260507132521 | 61 | 279 | 4.0 | 6.0 | 0.00 | 0.00 | 0.00 | 29 | 1017.9 |
| 20260507132022 | 61 | 279 | 1.0 | 6.0 | 0.00 | 0.00 | 0.00 | 29 | 1017.8 |
| 20260507131521 | 61 | 267 | 2.0 | 5.0 | 0.00 | 0.00 | 0.00 | 29 | 1017.7 |
| 20260507131022 | 61 | 275 | 2.0 | 6.0 | 0.00 | 0.00 | 0.00 | 29 | 1017.7 |
| 20260507130521 | 61 | 360 | 3.0 | 6.0 | 0.00 | 0.00 | 0.00 | 29 | 1017.7 |
| 20260507130022 | 61 | 360 | 4.0 | 6.0 | 0.00 | 0.00 | 0.00 | 28 | 1017.6 |
| 20260507125521 | 62 | 360 | 4.0 | 6.0 | 0.00 | 0.00 | 0.00 | 28 | 1017.9 |
| 20260507125022 | 62 | 284 | 2.0 | 5.0 | 0.00 | 0.00 | 0.00 | 28 | 1017.9 |
| 20260507124522 | 62 | 291 | 2.0 | 6.0 | 0.00 | 0.00 | 0.00 | 27 | 1017.9 |
| 20260507124022 | 62 | 292 | 3.0 | 6.0 | 0.00 | 0.00 | 0.00 | 28 | 1017.8 |
| 20260507123521 | 62 | 360 | 2.0 | 7.0 | 0.00 | 0.00 | 0.00 | 28 | 1017.8 |
| 20260507123021 | 62 | 331 | 2.0 | 7.0 | 0.00 | 0.00 | 0.00 | 27 | 1017.8 |
| 20260507122522 | 62 | 360 | 4.0 | 6.0 | 0.00 | 0.00 | 0.00 | 27 | 1017.7 |
| 20260507122022 | 62 | 256 | 4.0 | 6.0 | 0.00 | 0.00 | 0.00 | 26 | 1017.7 |
| 20260507121521 | 62 | 360 | 4.0 | 6.0 | 0.00 | 0.00 | 0.00 | 26 | 1017.8 |
| 20260507121022 | 62 | 360 | 3.0 | 6.0 | 0.00 | 0.00 | 0.00 | 25 | 1017.7 |
| 20260507120521 | 62 | 360 | 2.0 | 4.0 | 0.00 | 0.00 | 0.00 | 24 | 1017.8 |
| 20260507120021 | 62 | 360 | 2.0 | 4.0 | 0.00 | 0.00 | 0.00 | 24 | 1017.8 |
| 20260507115022 | 62 | 360 | 0.0 | 5.0 | 0.00 | 0.00 | 0.00 | 24 | 1017.8 |
| 20260507114521 | 62 | 360 | 1.0 | 5.0 | 0.00 | 0.00 | 0.00 | 24 | 1017.8 |
| 20260507114021 | 62 | 360 | 4.0 | 4.0 | 0.00 | 0.00 | 0.00 | 25 | 1017.8 |
| 20260507113521 | 62 | 360 | 1.0 | 3.0 | 0.00 | 0.00 | 0.00 | 25 | 1017.8 |
| 20260507113023 | 62 | 360 | 2.0 | 3.0 | 0.00 | 0.00 | 0.00 | 25 | 1017.8 |
| 20260507112521 | 62 | 360 | 1.0 | 2.0 | 0.00 | 0.00 | 0.00 | 26 | 1017.8 |
| 20260507112021 | 63 | 360 | 0.0 | 3.0 | 0.00 | 0.00 | 0.00 | 26 | 1017.8 |
| 20260507111522 | 63 | 360 | 1.0 | 3.0 | 0.00 | 0.00 | 0.00 | 25 | 1017.7 |
| 20260507111022 | 63 | 360 | 2.0 | 4.0 | 0.00 | 0.00 | 0.00 | 26 | 1017.7 |
| 20260507110021 | 63 | 360 | 1.0 | 4.0 | 0.00 | 0.00 | 0.00 | 26 | 1017.7 |
| 20260507105021 | 63 | 360 | 1.0 | 3.0 | 0.00 | 0.00 | 0.00 | 26 | 1017.8 |
| 20260507104521 | 63 | 360 | 1.0 | 3.0 | 0.00 | 0.00 | 0.00 | 26 | 1017.8 |
| 20260507104021 | 63 | 267 | 2.0 | 3.0 | 0.00 | 0.00 | 0.00 | 26 | 1017.7 |
| 20260507102521 | 63 | 248 | 2.0 | 3.0 | 0.00 | 0.00 | 0.00 | 26 | 1017.7 |
| 20260507102022 | 63 | 248 | 1.0 | 4.0 | 0.00 | 0.00 | 0.00 | 26 | 1017.7 |
| 20260507101521 | 64 | 360 | 3.0 | 4.0 | 0.00 | 0.00 | 0.00 | 27 | 1017.8 |
| 20260507101022 | 64 | 360 | 2.0 | 3.0 | 0.00 | 0.00 | 0.00 | 27 | 1017.7 |
| 20260507100522 | 64 | 360 | 0.0 | 3.0 | 0.00 | 0.00 | 0.00 | 27 | 1017.9 |
| 20260507100022 | 64 | 360 | 2.0 | 3.0 | 0.00 | 0.00 | 0.00 | 28 | 1017.8 |
| 20260507095522 | 64 | 360 | 1.0 | 3.0 | 0.00 | 0.00 | 0.00 | 28 | 1017.7 |
| 20260507095021 | 64 | 209 | 0.0 | 2.0 | 0.00 | 0.00 | 0.00 | 29 | 1017.8 |
| 20260507094521 | 64 | 360 | 1.0 | 2.0 | 0.00 | 0.00 | 0.00 | 29 | 1017.6 |
| 20260507094023 | 64 | 198 | 0.0 | 2.0 | 0.00 | 0.00 | 0.00 | 29 | 1017.7 |
| 20260507093521 | 65 | 198 | 1.0 | 2.0 | 0.00 | 0.00 | 0.00 | 29 | 1017.6 |
| 20260507093022 | 65 | 198 | 0.0 | 2.0 | 0.00 | 0.00 | 0.00 | 29 | 1017.7 |
| 20260507092521 | 65 | 198 | 0.0 | 1.0 | 0.00 | 0.00 | 0.00 | 28 | 1017.6 |
| 20260507092021 | 65 | 198 | 1.0 | 2.0 | 0.00 | 0.00 | 0.00 | 28 | 1017.7 |
| 20260507091522 | 66 | 198 | 1.0 | 2.0 | 0.00 | 0.00 | 0.00 | 28 | 1017.9 |
| 20260507091021 | 66 | 360 | 2.0 | 2.0 | 0.00 | 0.00 | 0.00 | 27 | 1017.9 |
| 20260507090521 | 67 | 198 | 1.0 | 2.0 | 0.00 | 0.00 | 0.00 | 27 | 1017.9 |
| 20260507090021 | 67 | 198 | 0.0 | 2.0 | 0.00 | 0.00 | 0.00 | 27 | 1017.9 |
| 20260507085522 | 67 | 198 | 2.0 | 2.0 | 0.00 | 0.00 | 0.00 | 26 | 1017.8 |
| 20260507085021 | 68 | 198 | 0.0 | 2.0 | 0.00 | 0.00 | 0.00 | 26 | 1017.8 |
| 20260507084522 | 68 | 198 | 0.0 | 3.0 | 0.00 | 0.00 | 0.00 | 26 | 1017.8 |
| 20260507083522 | 69 | 360 | 1.0 | 3.0 | 0.00 | 0.00 | 0.00 | 24 | 1018.0 |
| 20260507083022 | 69 | 277 | 3.0 | 3.0 | 0.00 | 0.00 | 0.00 | 24 | 1017.9 |
| 20260507082021 | 69 | 265 | 3.0 | 4.0 | 0.00 | 0.00 | 0.00 | 23 | 1017.8 |
| 20260507081021 | 69 | 21 | 2.0 | 9.0 | 0.00 | 0.00 | 0.00 | 21 | 1017.9 |
| 20260507080521 | 68 | 34 | 8.0 | 9.0 | 0.00 | 0.00 | 0.00 | 21 | 1017.6 |
| 20260507080021 | 68 | 360 | 6.0 | 6.0 | 0.00 | 0.00 | 0.00 | 25 | 1017.8 |
| 20260507075521 | 68 | 360 | 3.0 | 5.0 | 0.00 | 0.00 | 0.00 | 24 | 1017.7 |
| 20260507075021 | 68 | 360 | 4.0 | 4.0 | 0.00 | 0.00 | 0.00 | 24 | 1017.6 |
| 20260507074521 | 68 | 289 | 2.0 | 3.0 | 0.00 | 0.00 | 0.00 | 25 | 1017.7 |
| 20260507074021 | 69 | 360 | 0.0 | 3.0 | 0.00 | 0.00 | 0.00 | 24 | 1017.9 |
| 20260507073521 | 69 | 360 | 2.0 | 3.0 | 0.00 | 0.00 | 0.00 | 24 | 1017.9 |
| 20260507073021 | 69 | 360 | 3.0 | 3.0 | 0.00 | 0.00 | 0.00 | 24 | 1017.9 |
| 20260507072521 | 69 | 293 | 1.0 | 2.0 | 0.00 | 0.00 | 0.00 | 24 | 1017.8 |
| 20260507072021 | 69 | 360 | 0.0 | 2.0 | 0.00 | 0.00 | 0.00 | 24 | 1017.7 |
| 20260507071521 | 69 | 293 | 0.0 | 4.0 | 0.00 | 0.00 | 0.00 | 24 | 1017.8 |
| 20260507071021 | 69 | 360 | 1.0 | 4.0 | 0.00 | 0.00 | 0.00 | 23 | 1017.6 |
| 20260507070521 | 69 | 360 | 1.0 | 4.0 | 0.00 | 0.00 | 0.00 | 23 | 1017.7 |
| 20260507070021 | 69 | 360 | 1.0 | 4.0 | 0.00 | 0.00 | 0.00 | 24 | 1017.6 |
| 20260507065521 | 69 | 293 | 2.0 | 4.0 | 0.00 | 0.00 | 0.00 | 23 | 1017.3 |
| 20260507065021 | 69 | 360 | 1.0 | 3.0 | 0.00 | 0.00 | 0.00 | 23 | 1017.2 |
| 20260507064521 | 69 | 360 | 2.0 | 4.0 | 0.00 | 0.00 | 0.00 | 23 | 1017.2 |
| 20260507064021 | 69 | 287 | 2.0 | 4.0 | 0.00 | 0.00 | 0.00 | 24 | 1017.2 |
| 20260507063521 | 69 | 360 | 2.0 | 4.0 | 0.00 | 0.00 | 0.00 | 24 | 1017.1 |
| 20260507062520 | 70 | 360 | 1.0 | 4.0 | 0.00 | 0.00 | 0.00 | 24 | 1017.2 |
| 20260507062021 | 70 | 282 | 2.0 | 4.0 | 0.00 | 0.00 | 0.00 | 25 | 1017.2 |
| 20260507061021 | 70 | 360 | 3.0 | 4.0 | 0.00 | 0.00 | 0.00 | 26 | 1017.1 |
| 20260507060521 | 70 | 236 | 0.0 | 2.0 | 0.00 | 0.00 | 0.00 | 26 | 1016.9 |
| 20260507060020 | 71 | 237 | 1.0 | 3.0 | 0.00 | 0.00 | 0.00 | 26 | 1016.8 |
| 20260507055521 | 71 | 237 | 1.0 | 3.0 | 0.00 | 0.00 | 0.00 | 25 | 1016.6 |
| 20260507054520 | 71 | 215 | 2.0 | 2.0 | 0.00 | 0.00 | 0.00 | 25 | 1016.5 |
| 20260507054020 | 71 | 215 | 0.0 | 3.0 | 0.00 | 0.00 | 0.00 | 25 | 1016.4 |
| 20260507053521 | 72 | 215 | 2.0 | 3.0 | 0.00 | 0.00 | 0.00 | 25 | 1016.5 |
| 20260507053021 | 72 | 360 | 1.0 | 3.0 | 0.00 | 0.00 | 0.00 | 26 | 1016.5 |
| 20260507052521 | 72 | 360 | 2.0 | 2.0 | 0.00 | 0.00 | 0.00 | 25 | 1016.5 |
| 20260507052021 | 72 | 360 | 1.0 | 2.0 | 0.00 | 0.00 | 0.00 | 25 | 1016.4 |
| 20260507051520 | 72 | 360 | 0.0 | 1.0 | 0.00 | 0.00 | 0.00 | 25 | 1016.4 |
| 20260507051020 | 72 | 360 | 1.0 | 2.0 | 0.00 | 0.00 | 0.00 | 25 | 1016.3 |
| 20260507050521 | 73 | 360 | 0.0 | 2.0 | 0.00 | 0.00 | 0.00 | 25 | 1016.4 |
| 20260507050020 | 73 | 360 | 1.0 | 2.0 | 0.00 | 0.00 | 0.00 | 25 | 1016.3 |
| 20260507045020 | 73 | 360 | 1.0 | 2.0 | 0.00 | 0.00 | 0.00 | 25 | 1016.0 |
| 20260507044520 | 74 | 360 | 0.0 | 2.0 | 0.00 | 0.00 | 0.00 | 25 | 1016.1 |